Weather History for Jordan, MT

Change the Weather History Date:

Thursday, November 29, 2012

  Actual Average Record
Temperature  
Mean Temperature 28 °F 24 °F  
Max Temperature 34 °F 37 °F 60 °F (1939)
Min Temperature 21 °F 11 °F -31 °F (1905)
Degree Days  
Heating Degree Days 37 41  
Month to date heating degree days 925 1005  
Since 1 July heating degree days 1742 1978  
Cooling Degree Days 0 0  
Month to date cooling degree days 0 0  
Year to date cooling degree days 728 421  
Moisture  
Dew Point 21 °F    
Average Humidity 81    
Maximum Humidity 92    
Minimum Humidity 69    
Precipitation  
Precipitation 0.00 in 0.00 in 0.25 in (1975)
Month to date precipitation 0.74 0.35  
Year to date precipitation 7.69 12.37  
Snow  
Snow 0.00 in - - ()
Month to date snowfall 0.0  
Since 1 July snowfall 0.0  
Since 1 September snowfall 0.0  
Snow Depth 0.00 in    
Sea Level Pressure  
Sea Level Pressure 29.95 in    
Wind  
Wind Speed 2 mph (ENE)    
Max Wind Speed 8 mph    
Max Gust Speed 10 mph    
T = Trace of Precipitation, MM = Missing Value Source: NWS Daily Summary

Daily Weather History Graph

Daily Weather History Graph

Search for Another Location

Airport:

Trip Planner

Search our weather history database for the weather conditions in past years. The results will help you decide how hot, cold, wet, or windy it might be!

Date:

Astronomy

Nov. 29, 2012 Rise Set
Actual Time 7:32 AM MST 4:20 PM MST
Civil Twilight 6:57 AM MST 4:54 PM MST
Nautical Twilight 6:19 AM MST 5:33 PM MST
Astronomical Twilight 5:42 AM MST 6:10 PM MST
Moon 5:25 PM MST (11/29) 8:21 AM MST (11/29)
Length of Visible Light 9h 57m
Length of Day
8h 47m
Full, 99% of the Moon is Illuminated
Nov 29
Full
Dec 6
Last Quarter
Dec 13
New
Dec 19
First Quarter
Dec 28
Full

Hourly Weather History & Observations

Time (MST) Temp. Windchill Dew Point Humidity Pressure Visibility Wind Dir Wind Speed Gust Speed Precip Events Conditions
12:48 AM 23.0 °F 14.7 °F 19.9 °F 88% 29.91 in - ENE 6.9 mph - N/A   Unknown
1:48 AM 23.0 °F 15.8 °F 19.9 °F 88% 29.90 in - East 5.8 mph - N/A   Unknown
2:48 AM 21.9 °F 15.7 °F 19.9 °F 92% 29.90 in - ENE 4.6 mph - N/A   Unknown
3:48 AM 23.0 °F 18.4 °F 19.9 °F 88% 29.91 in - ENE 3.5 mph - N/A   Unknown
4:48 AM 23.0 °F - 19.9 °F 88% 29.92 in - Calm Calm - N/A   Unknown
5:48 AM 23.0 °F 18.4 °F 19.0 °F 85% 29.93 in - ENE 3.5 mph - N/A   Unknown
6:48 AM 21.9 °F 15.7 °F 19.0 °F 89% 29.95 in - NNW 4.6 mph - N/A   Unknown
7:48 AM 21.9 °F - 19.9 °F 92% 29.97 in - Calm Calm - N/A   Unknown
8:48 AM 23.0 °F - 19.9 °F 88% 29.98 in - Calm Calm - N/A   Unknown
9:48 AM 24.1 °F - 19.9 °F 84% 29.98 in - Calm Calm - N/A   Unknown
10:48 AM 26.1 °F - 21.0 °F 81% 29.99 in - Calm Calm - N/A   Unknown
11:48 AM 28.0 °F - 21.9 °F 78% 29.96 in - Calm Calm - N/A   Unknown
12:48 PM 30.0 °F - 23.0 °F 75% 29.96 in - Calm Calm - N/A   Unknown
1:48 PM 32.0 °F 28.7 °F 24.1 °F 73% 29.96 in - ESE 3.5 mph - N/A   Unknown
2:48 PM 33.1 °F 30.0 °F 24.1 °F 70% 29.96 in - East 3.5 mph - N/A   Unknown
3:48 PM 33.1 °F 27.7 °F 24.1 °F 70% 29.98 in - East 5.8 mph - N/A   Unknown
4:48 PM 28.0 °F 22.8 °F 23.0 °F 81% 29.98 in - East 4.6 mph - N/A   Unknown
5:48 PM 26.1 °F - 21.9 °F 84% 29.99 in - Calm Calm - N/A   Unknown
6:48 PM 21.9 °F - 19.0 °F 89% 30.00 in - Calm Calm - N/A   Unknown
7:48 PM 21.9 °F - 19.0 °F 89% 29.99 in - Calm Calm - N/A   Unknown
8:48 PM 21.0 °F - 18.0 °F 88% 29.98 in - Calm Calm - N/A   Unknown
9:48 PM 21.0 °F - 19.0 °F 92% 29.96 in - Calm Calm - N/A   Unknown
10:48 PM 21.9 °F - 19.0 °F 89% 29.94 in - Calm Calm - N/A   Unknown
11:48 PM 21.9 °F 17.2 °F 19.0 °F 89% 29.91 in - East 3.5 mph - N/A   Unknown